Location: Mahannah Oil Field
(37.4664°N, 96.6003°W)
Time: 21:21:44
(UTC+00:00)

Transit 2A Rocket - Pass Details

Date: 21 January 2021
Orbit: 594 x 909 km, 66.7° (Epoch: 26 February)

Event Time Altitude Azimuth Distance (km) Brightness Sun altitude
Rises 19:39:51 0° 228° (SW) 3,385 9.2 31.0°
Reaches altitude 10° 19:42:34 10° 236° (WSW) 2,407 8.5 30.8°
Maximum altitude 19:47:40 37° 303° (WNW) 1,187 6.2 30.5°
Drops below altitude 10° 19:52:23 10° 11° (N) 2,222 7.0 30.2°
Sets 19:54:48 0° 20° (NNE) 3,093 7.6 30.0°
